Regional Weather Roundup
Issued by NWS Midland/Odessa, TX

Skip options and go directly to product.
Home | Oldest Version | Previous Version | Current Version | All | Text Only | Save Text | Print | Product List | Glossary Off

Skip product version selection by date and time.   

775
ASUS44 KMAF 231510
RWRMAF
MIDLAND AREA WEATHER ROUNDUP
NATIONAL WEATHER SERVICE MIDLAND TX
1000 AM CDT SAT AUG 23 2014

...IN SOUTHWEST TEXAS AND SOUTHEAST NEW MEXICO...

CITY           SKY/WX    TMP DP  RH WIND       PRES   REMARKS
ALPINE         PTSUNNY   75  52  45 CALM      30.19S
ANDREWS        PTSUNNY   79  53  40 S12G18    30.06S
ARTESIA        NOT AVBL
BIG SPRING     MOSUNNY   82  61  48 S17G23    30.06S
CARLSBAD       SUNNY     78  63  59 E9        30.03S
DRYDEN           N/A     81  62  52 SE13      30.03R
FORT STOCKTON  MOSUNNY   79  53  40 S14       30.05S
GUAD PASS      SUNNY     71  60  68 SW14      30.20S
HOBBS          SUNNY     73  64  73 S7        30.08S
MARFA          PTSUNNY   70  59  68 CALM      30.19S
MIDLAND AIRPK  MOSUNNY   81  59  47 S15       30.05S
MIDLAND INTL   PTSUNNY   81  59  47 S17       30.04S
ODESSA         PTSUNNY   78  57  48 S16       30.05F
PECOS          PTSUNNY   75  67  76 CALM      30.03R
PRESIDIO       FAIR      77  63  62 CALM      30.05S
SEMINOLE       PTSUNNY   77  55  46 S12G17    30.07F
SNYDER         PTSUNNY   78  64  60 S12G17    30.05S
WINK           CLOUDY    77  62  59 S7        30.02S
$$
...OTHER STATIONS IN TEXAS...

CITY           SKY/WX    TMP DP  RH WIND       PRES   REMARKS
ABILENE        SUNNY     83  60  45 SW15      30.03S
AMARILLO       MOSUNNY   79  58  48 S18G24    30.01F
AUSTIN         PTSUNNY   83  73  72 S9        30.03S
BROWNSVILLE    MOSUNNY   87  76  69 SE9       29.98S
CORPUS CHRISTI MOSUNNY   87  74  64 S9        30.00S
DALLAS FTW     MOSUNNY   86  64  47 SW12      30.00S
DEL RIO        SUNNY     81  68  64 E14       30.00S
EL PASO        MOSUNNY   74  60  61 VRB3      30.10S
HOUSTON INT    MOSUNNY   86  76  71 SW6       30.04R
LUBBOCK        PTSUNNY   82  50  32 SW17      30.04F
SAN ANGELO     SUNNY     81  63  54 S14       30.03F
SAN ANTONIO    PTSUNNY   84  72  67 S10G18    30.04S
WACO           SUNNY     85  69  58 S14       30.03S
WICHITA FALLS  NOT AVBL
$$
...OTHER LOCATIONS IN NEW MEXICO...

CITY           SKY/WX    TMP DP  RH WIND       PRES   REMARKS
ALAMAGORDO     MOSUNNY   70  61  73 CALM      30.13S
ALBUQUERQUE    MOSUNNY   63  57  81 CALM      30.19S
CANNON AFB     SUNNY     72  62  69 SW8       30.08S
CLOVIS           N/A     73  61  64 SW9       30.09S
HOLLOMAN AFB   MOSUNNY   72  63  73 S3        30.10F
ROSWELL        SUNNY     76  60  57 CALM      30.05S
RUIDOSO        SUNNY     64  54  68 NW6       30.27S
SANTA FE       MOSUNNY   59  54  83 SW7       30.21F
TRUTH OR CONSE SUNNY     69  56  62 W3        30.15S
TUCUMCARI      SUNNY     79  51  37 W18G25    30.02F
$$

USA.gov is the U.S. government's official web portal to all federal, state and local government web resources and services.